User: anonymous   Login
Location: Boissi�res
(45.2500°N, 2.3667°E)
Time: 16:23:16
(UTC+00:00)
Language:

NOAA 16 DEB - Orbit

View from above orbital plane
View from above orbital plane
View from above satellite
View from above satellite

Ground track
Ground track

The orbit data is extracted from the following two-line orbital elements,

1 41274U 00055GA  21267.28050935  .00001875  00000-0  73895-3 0  9994
2 41274  98.8159  18.9169 0066246  95.0566 265.8181 14.29155350299803
Epoch (UTC): 24 September 2021 06:43:56
Eccentricity: 0.0066246
inclination: 98.8159°
perigee height: 747 km
apogee height: 842 km
right ascension of ascending node: 18.9169°
argument of perigee: 95.0566°
revolutions per day: 14.29155350
mean anomaly at epoch: 265.8181°
orbit number at epoch: 29980

The dashed part of the orbit path shows where the satellite is in the earth's shadow,  

DLR